• In Austria
  • List of Countries
  • For 7 days
  • Water Temperature
  • Satellite Maps
  • Weather Map
  • News
  • Weather Widgets
  • user-avatar
    Login

    Hourly Weather Ganja

    Today, 25 May, Friday

    Time Temperature Precipitation Wind Pressure Humidity
    00:00 +20°C° 0 mm 2 mps 723 mmHg 38%
    01:00 +20°C° 0 mm 2 mps 723 mmHg 39%
    02:00 +19°C° 0 mm 2 mps 723 mmHg 39%
    03:00 +19°C° 0 mm 2 mps 722 mmHg 42%
    04:00 +19°C° 0 mm 2 mps 723 mmHg 44%
    05:00 +20°C° 0 mm 2 mps 723 mmHg 45%
    06:00 +21°C° 0 mm 2 mps 723 mmHg 46%
    07:00 +23°C° 0 mm 2 mps 723 mmHg 42%
    08:00 +25°C° 0 mm 2 mps 723 mmHg 38%
    09:00 +27°C° 0 mm 1 mps 722 mmHg 32%
    10:00 +28°C° 0 mm 2 mps 722 mmHg 32%
    11:00 +29°C° 0 mm 2 mps 722 mmHg 31%
    12:00 +30°C° 0 mm 2 mps 722 mmHg 31%
    13:00 +30°C° 0.2 mm 2 mps 722 mmHg 32%
    14:00 +30°C° 0.2 mm 2 mps 721 mmHg 33%
    15:00 +31°C° 0.2 mm 2 mps 721 mmHg 33%
    16:00 +30°C° 0.2 mm 2 mps 721 mmHg 37%
    17:00 +30°C° 0.2 mm 1 mps 721 mmHg 40%
    18:00 +29°C° 0.2 mm 1 mps 721 mmHg 43%
    19:00 +27°C° 0.1 mm 1 mps 721 mmHg 46%
    20:00 +26°C° 0.1 mm 1 mps 721 mmHg 49%
    21:00 +24°C° 0.1 mm 1 mps 721 mmHg 52%
    22:00 +24°C° 0 mm 1 mps 721 mmHg 52%
    23:00 +23°C° 0 mm 2 mps 722 mmHg 52%

    Tomorrow, 26 May, Saturday

    Time Temperature Precipitation Wind Pressure Humidity
    00:00 +23°C° 0 mm 2 mps 722 mmHg 52%
    01:00 +21°C° 0 mm 2 mps 722 mmHg 53%
    02:00 +21°C° 0 mm 2 mps 722 mmHg 53%
    03:00 +20°C° 0 mm 3 mps 721 mmHg 53%
    04:00 +21°C° 0 mm 3 mps 722 mmHg 53%
    05:00 +21°C° 0 mm 3 mps 722 mmHg 53%
    06:00 +21°C° 0 mm 3 mps 722 mmHg 53%
    07:00 +24°C° 0 mm 3 mps 722 mmHg 48%
    08:00 +26°C° 0 mm 4 mps 722 mmHg 43%
    09:00 +28°C° 0 mm 4 mps 722 mmHg 38%
    10:00 +29°C° 0.1 mm 3 mps 722 mmHg 37%
    11:00 +30°C° 0.1 mm 3 mps 722 mmHg 35%
    12:00 +31°C° 0.1 mm 3 mps 722 mmHg 34%
    13:00 +31°C° 0.1 mm 2 mps 722 mmHg 34%
    14:00 +31°C° 0.1 mm 2 mps 722 mmHg 34%
    15:00 +32°C° 0.1 mm 2 mps 722 mmHg 34%
    16:00 +31°C° 0.1 mm 2 mps 722 mmHg 38%
    17:00 +30°C° 0.1 mm 2 mps 722 mmHg 41%
    18:00 +30°C° 0.1 mm 2 mps 722 mmHg 45%
    19:00 +28°C° 0.5 mm 2 mps 723 mmHg 49%
    20:00 +26°C° 0.5 mm 2 mps 723 mmHg 53%
    21:00 +24°C° 0.5 mm 1 mps 724 mmHg 57%
    22:00 +24°C° 0.6 mm 1 mps 724 mmHg 59%
    23:00 +23°C° 0.6 mm 1 mps 725 mmHg 61%

    Day after tomorrow, 27 May, Sunday

    Time Temperature Precipitation Wind Pressure Humidity
    00:00 +23°C° 0.6 mm 1 mps 725 mmHg 63%
    01:00 +23°C° 0.2 mm 1 mps 725 mmHg 65%
    02:00 +22°C° 0.2 mm 1 mps 726 mmHg 66%
    03:00 +22°C° 0.2 mm 1 mps 726 mmHg 68%
    04:00 +22°C° 0 mm 1 mps 726 mmHg 68%
    05:00 +22°C° 0 mm 1 mps 726 mmHg 69%
    06:00 +23°C° 0 mm 1 mps 727 mmHg 70%
    07:00 +24°C° 0.2 mm 2 mps 727 mmHg 68%
    08:00 +25°C° 0.2 mm 4 mps 727 mmHg 65%
    09:00 +26°C° 0.2 mm 5 mps 728 mmHg 63%
    10:00 +26°C° 0.1 mm 6 mps 728 mmHg 61%
    11:00 +27°C° 0.1 mm 6 mps 728 mmHg 58%
    12:00 +27°C° 0.1 mm 7 mps 729 mmHg 55%
    13:00 +27°C° 0.2 mm 7 mps 729 mmHg 54%
    14:00 +27°C° 0.2 mm 8 mps 729 mmHg 53%
    15:00 +27°C° 0.2 mm 8 mps 729 mmHg 52%
    16:00 +26°C° 0.3 mm 8 mps 729 mmHg 55%
    17:00 +24°C° 0.3 mm 8 mps 729 mmHg 58%
    18:00 +23°C° 0.3 mm 8 mps 729 mmHg 61%
    19:00 +21°C° 0 mm 7 mps 730 mmHg 63%
    20:00 +20°C° 0 mm 6 mps 730 mmHg 65%
    21:00 +19°C° 0 mm 6 mps 731 mmHg 66%
    22:00 +17°C° 0 mm 5 mps 731 mmHg 67%
    23:00 +18°C° 0 mm 4 mps 731 mmHg 68%

    28 May, Monday

    Time Temperature Precipitation Wind Pressure Humidity
    00:00 +17°C° 0 mm 3 mps 731 mmHg 68%
    01:00 +17°C° 0 mm 2 mps 730 mmHg 69%
    02:00 +16°C° 0 mm 1 mps 730 mmHg 70%
    03:00 +15°C° 0 mm 0 mps 730 mmHg 71%
    04:00 +16°C° 0 mm 1 mps 730 mmHg 70%
    05:00 +18°C° 0 mm 1 mps 730 mmHg 68%
    06:00 +18°C° 0 mm 1 mps 729 mmHg 66%
    07:00 +20°C° 0 mm 1 mps 729 mmHg 62%
    08:00 +20°C° 0 mm 2 mps 728 mmHg 58%
    09:00 +23°C° 0 mm 2 mps 728 mmHg 55%
    10:00 +24°C° 0 mm 2 mps 727 mmHg 52%
    11:00 +26°C° 0 mm 2 mps 727 mmHg 49%
    12:00 +27°C° 0 mm 2 mps 726 mmHg 46%
    13:00 +28°C° 0.1 mm 2 mps 726 mmHg 45%
    14:00 +28°C° 0.1 mm 2 mps 726 mmHg 44%
    15:00 +29°C° 0.1 mm 2 mps 725 mmHg 43%
    16:00 +28°C° 0.1 mm 2 mps 725 mmHg 45%
    17:00 +28°C° 0.1 mm 2 mps 725 mmHg 48%
    18:00 +27°C° 0.1 mm 3 mps 725 mmHg 50%
    19:00 +26°C° 0 mm 2 mps 726 mmHg 52%
    20:00 +25°C° 0 mm 2 mps 726 mmHg 55%
    21:00 +23°C° 0 mm 2 mps 726 mmHg 57%
    22:00 +23°C° 0 mm 2 mps 727 mmHg 58%
    23:00 +21°C° 0 mm 2 mps 727 mmHg 59%

    29 May, Tuesday

    Time Temperature Precipitation Wind Pressure Humidity
    00:00 +21°C° 0 mm 2 mps 727 mmHg 59%
    01:00 +21°C° 0 mm 2 mps 727 mmHg 62%
    02:00 +20°C° 0 mm 2 mps 727 mmHg 64%
    03:00 +20°C° 0 mm 2 mps 727 mmHg 66%
    04:00 +20°C° 0 mm 2 mps 727 mmHg 67%
    05:00 +20°C° 0 mm 2 mps 727 mmHg 67%
    06:00 +20°C° 0 mm 2 mps 727 mmHg 67%
    07:00 +22°C° 0 mm 3 mps 727 mmHg 62%
    08:00 +23°C° 0 mm 4 mps 728 mmHg 56%
    09:00 +25°C° 0 mm 4 mps 728 mmHg 51%
    10:00 +26°C° 0 mm 5 mps 727 mmHg 49%
    11:00 +27°C° 0 mm 5 mps 727 mmHg 47%
    12:00 +28°C° 0 mm 6 mps 727 mmHg 45%
    13:00 +28°C° 0 mm 6 mps 727 mmHg 45%
    14:00 +28°C° 0 mm 6 mps 726 mmHg 45%
    15:00 +28°C° 0 mm 6 mps 726 mmHg 45%
    16:00 +27°C° 0.1 mm 6 mps 726 mmHg 47%
    17:00 +26°C° 0.1 mm 6 mps 726 mmHg 50%
    18:00 +24°C° 0.1 mm 6 mps 726 mmHg 52%
    19:00 +23°C° 0.3 mm 6 mps 727 mmHg 54%
    20:00 +22°C° 0.3 mm 6 mps 728 mmHg 56%
    21:00 +21°C° 0.3 mm 6 mps 728 mmHg 58%
    22:00 +20°C° 0.3 mm 5 mps 728 mmHg 59%
    23:00 +19°C° 0.3 mm 5 mps 728 mmHg 60%

    30 May, Wednesday

    Time Temperature Precipitation Wind Pressure Humidity
    00:00 +18°C° 0.3 mm 4 mps 728 mmHg 60%
    01:00 +18°C° 0.2 mm 4 mps 728 mmHg 61%
    02:00 +17°C° 0.2 mm 3 mps 728 mmHg 61%
    03:00 +17°C° 0.2 mm 3 mps 728 mmHg 62%
    04:00 +17°C° 0 mm 3 mps 728 mmHg 62%
    05:00 +17°C° 0 mm 3 mps 728 mmHg 62%
    06:00 +17°C° 0 mm 3 mps 728 mmHg 62%
    07:00 +19°C° 0 mm 4 mps 728 mmHg 58%
    08:00 +20°C° 0 mm 4 mps 728 mmHg 53%
    09:00 +21°C° 0 mm 4 mps 728 mmHg 49%
    10:00 +22°C° 0 mm 4 mps 728 mmHg 48%
    11:00 +23°C° 0 mm 5 mps 728 mmHg 46%
    12:00 +25°C° 0 mm 5 mps 727 mmHg 45%
    13:00 +26°C° 0 mm 4 mps 727 mmHg 45%
    14:00 +26°C° 0 mm 4 mps 727 mmHg 45%
    15:00 +26°C° 0 mm 4 mps 726 mmHg 45%
    16:00 +26°C° 0 mm 4 mps 726 mmHg 46%
    17:00 +25°C° 0 mm 4 mps 726 mmHg 48%
    18:00 +25°C° 0 mm 3 mps 726 mmHg 50%
    19:00 +24°C° 0 mm 3 mps 726 mmHg 52%
    20:00 +22°C° 0 mm 3 mps 727 mmHg 54%
    21:00 +20°C° 0 mm 3 mps 727 mmHg 56%
    22:00 +20°C° 0 mm 3 mps 726 mmHg 57%
    23:00 +20°C° 0 mm 2 mps 726 mmHg 57%
    Show more